RYR75SE EBCI-LIRZ

Flight info

Callsign RYR75SE
Flight time 1h 41m
Altitude 37000
Route RITAX9X RITAX M624 DIK M150 PITES DCT EDISA DCT PICWI DCT BATUB DCT TIRUL M738 NATAG DCT LORLO DCT UNTAD DCT LUMAV DCT SUKOM DCT BAGNO DCT VERUN Q25 LAKOX
Aircraft B738/M-L/S

Departure

Time 2026-04-26 11:57
Airport Brussels South Charleroi Airport (EBCI)

Arrival

Time 2026-04-26 13:39
Airport Perugia San Francesco d'Assisi – Umbria International Airport (LIRZ)
Time Latitude Longitude Altitude Speed Heading
2026-04-26 11:42 50.46836 4.46987 612 ft 0 kts 335°
2026-04-26 11:49 50.46820 4.46999 620 ft 4 kts 335°
2026-04-26 11:49 50.46797 4.47017 625 ft 3 kts 329°
2026-04-26 11:49 50.46784 4.47031 627 ft 2 kts 307°
2026-04-26 11:50 50.46780 4.47048 621 ft 2 kts 263°
2026-04-26 11:50 50.46782 4.47064 624 ft 2 kts 247°
2026-04-26 11:50 50.46787 4.47081 620 ft 2 kts 245°
2026-04-26 11:52 50.46785 4.47073 626 ft 6 kts 245°
2026-04-26 11:52 50.46742 4.46925 622 ft 20 kts 245°
2026-04-26 11:53 50.46683 4.46724 620 ft 20 kts 245°
2026-04-26 11:53 50.46617 4.46545 615 ft 17 kts 205°
2026-04-26 11:53 50.46526 4.46517 618 ft 14 kts 238°
2026-04-26 11:54 50.46427 4.46182 617 ft 22 kts 245°
2026-04-26 11:54 50.46357 4.45939 616 ft 26 kts 245°
2026-04-26 11:54 50.46278 4.45670 624 ft 28 kts 245°
2026-04-26 11:54 50.46197 4.45391 624 ft 28 kts 246°
2026-04-26 11:55 50.46119 4.45123 618 ft 26 kts 245°
2026-04-26 11:55 50.46047 4.44871 618 ft 24 kts 245°
2026-04-26 11:55 50.45978 4.44637 626 ft 23 kts 245°
2026-04-26 11:55 50.45900 4.44407 617 ft 26 kts 236°
2026-04-26 11:56 50.45785 4.44176 619 ft 27 kts 232°
2026-04-26 11:56 50.45678 4.43988 623 ft 18 kts 202°
2026-04-26 11:56 50.45644 4.44108 615 ft 16 kts 66°
2026-04-26 11:56 50.45731 4.44407 618 ft 60 kts 65°
2026-04-26 11:57 50.46005 4.45350 615 ft 127 kts 65°
2026-04-26 11:57 50.46442 4.46873 759 ft 168 kts 66°
2026-04-26 11:57 50.46934 4.48437 1773 ft 157 kts 51°
2026-04-26 11:57 50.47807 4.49553 2501 ft 168 kts 23°
2026-04-26 11:58 50.48840 4.50418 3186 ft 175 kts 49°
2026-04-26 11:58 50.49526 4.52023 3866 ft 180 kts 56°
2026-04-26 11:58 50.50310 4.53806 4002 ft 217 kts 54°
2026-04-26 11:58 50.51260 4.55837 4011 ft 238 kts 53°
2026-04-26 11:59 50.52301 4.57976 4046 ft 252 kts 52°
2026-04-26 11:59 50.53350 4.60285 4590 ft 266 kts 64°
2026-04-26 11:59 50.53620 4.63107 5524 ft 267 kts 99°
2026-04-26 11:59 50.52919 4.65813 6392 ft 271 kts 120°
2026-04-26 12:00 50.51873 4.68319 7204 ft 276 kts 124°
2026-04-26 12:00 50.50754 4.70804 8020 ft 281 kts 124°
2026-04-26 12:00 50.49610 4.73316 8835 ft 285 kts 125°
2026-04-26 12:00 50.48449 4.75873 9629 ft 291 kts 124°
2026-04-26 12:01 50.47267 4.78495 10265 ft 295 kts 124°
2026-04-26 12:01 50.46081 4.81132 10867 ft 297 kts 124°
2026-04-26 12:01 50.44884 4.83801 11503 ft 302 kts 124°
2026-04-26 12:01 50.43667 4.86522 12117 ft 306 kts 124°
2026-04-26 12:02 50.42439 4.89272 12778 ft 310 kts 124°
2026-04-26 12:02 50.41616 4.91116 13198 ft 313 kts 124°
2026-04-26 12:02 50.39937 4.94877 14073 ft 316 kts 124°
2026-04-26 12:02 50.38676 4.97704 14663 ft 317 kts 124°
2026-04-26 12:03 50.37410 5.00539 15276 ft 318 kts 125°
2026-04-26 12:03 50.36134 5.03393 15892 ft 321 kts 125°
2026-04-26 12:03 50.34848 5.06269 16530 ft 324 kts 125°
2026-04-26 12:03 50.33548 5.09172 17159 ft 326 kts 125°
2026-04-26 12:04 50.32240 5.12089 17823 ft 329 kts 125°
2026-04-26 12:04 50.30922 5.15028 18493 ft 331 kts 125°
2026-04-26 12:04 50.29597 5.17979 19081 ft 333 kts 125°
2026-04-26 12:04 50.28263 5.20946 19671 ft 334 kts 125°
2026-04-26 12:05 50.26923 5.23920 20277 ft 335 kts 125°
2026-04-26 12:05 50.25588 5.26879 20879 ft 332 kts 124°
2026-04-26 12:05 50.24262 5.29817 21501 ft 330 kts 124°
2026-04-26 12:05 50.22933 5.32763 21916 ft 338 kts 124°
2026-04-26 12:06 50.21540 5.35846 22028 ft 355 kts 124°
2026-04-26 12:06 50.20082 5.39069 22153 ft 372 kts 124°
2026-04-26 12:06 50.18565 5.42417 22444 ft 382 kts 124°
2026-04-26 12:06 50.17022 5.45814 22944 ft 386 kts 124°
2026-04-26 12:07 50.15463 5.49245 23394 ft 390 kts 124°
2026-04-26 12:07 50.14398 5.51584 23671 ft 392 kts 124°
2026-04-26 12:07 50.12820 5.55047 24038 ft 393 kts 124°
2026-04-26 12:07 50.11235 5.58522 24383 ft 394 kts 124°
2026-04-26 12:08 50.09640 5.62013 24742 ft 396 kts 124°
2026-04-26 12:08 50.08041 5.65510 25092 ft 397 kts 124°
2026-04-26 12:08 50.06435 5.69018 25461 ft 398 kts 124°
2026-04-26 12:08 50.04824 5.72531 25816 ft 400 kts 124°
2026-04-26 12:09 50.03200 5.76068 26162 ft 404 kts 124°
2026-04-26 12:09 50.01558 5.79640 26551 ft 407 kts 124°
2026-04-26 12:09 49.99907 5.83228 26991 ft 409 kts 125°
2026-04-26 12:09 49.98246 5.86831 27420 ft 411 kts 125°
2026-04-26 12:10 49.96575 5.90451 27816 ft 413 kts 125°
2026-04-26 12:10 49.94894 5.94089 28215 ft 416 kts 125°
2026-04-26 12:10 49.93202 5.97743 28602 ft 418 kts 125°
2026-04-26 12:10 49.91500 6.01418 28999 ft 421 kts 125°
2026-04-26 12:11 49.89786 6.05113 29359 ft 423 kts 125°
2026-04-26 12:11 49.88062 6.08823 29742 ft 425 kts 125°
2026-04-26 12:11 49.86336 6.12553 30119 ft 427 kts 123°
2026-04-26 12:11 49.84805 6.16506 30438 ft 429 kts 117°
2026-04-26 12:12 49.83403 6.20661 30754 ft 430 kts 116°
2026-04-26 12:12 49.82044 6.24801 31078 ft 432 kts 116°
2026-04-26 12:12 49.80679 6.28942 31392 ft 433 kts 116°
2026-04-26 12:12 49.79763 6.31688 31583 ft 434 kts 117°
2026-04-26 12:13 49.77887 6.37240 31971 ft 436 kts 117°
2026-04-26 12:13 49.76468 6.41398 32253 ft 438 kts 117°
2026-04-26 12:13 49.75041 6.45566 32529 ft 439 kts 117°
2026-04-26 12:13 49.73611 6.49737 32799 ft 441 kts 118°
2026-04-26 12:14 49.72136 6.53906 33054 ft 443 kts 120°
2026-04-26 12:14 49.70557 6.57993 33312 ft 444 kts 122°
2026-04-26 12:14 49.68922 6.62043 33569 ft 445 kts 122°
2026-04-26 12:14 49.67262 6.66096 33803 ft 447 kts 123°
2026-04-26 12:15 49.65597 6.70157 34031 ft 449 kts 122°
2026-04-26 12:15 49.63933 6.74234 34284 ft 449 kts 122°
2026-04-26 12:15 49.62280 6.78303 34573 ft 448 kts 122°
2026-04-26 12:15 49.60628 6.82381 34854 ft 447 kts 122°
2026-04-26 12:16 49.58983 6.86446 35088 ft 447 kts 122°
2026-04-26 12:16 49.57341 6.90505 35326 ft 447 kts 122°
2026-04-26 12:16 49.55694 6.94570 35575 ft 447 kts 123°
2026-04-26 12:16 49.54049 6.98626 35802 ft 447 kts 123°
2026-04-26 12:17 49.52397 7.02691 36013 ft 447 kts 123°
2026-04-26 12:17 49.50750 7.06737 36249 ft 446 kts 123°
2026-04-26 12:17 49.49101 7.10781 36481 ft 446 kts 123°
2026-04-26 12:17 49.47454 7.14816 36663 ft 446 kts 123°
2026-04-26 12:18 49.45800 7.18860 36879 ft 446 kts 123°
2026-04-26 12:18 49.44149 7.22890 37088 ft 446 kts 123°
2026-04-26 12:18 49.42498 7.26915 37255 ft 446 kts 123°
2026-04-26 12:19 49.39156 7.35041 37249 ft 453 kts 123°
2026-04-26 12:19 49.35753 7.43291 37244 ft 461 kts 123°
2026-04-26 12:20 49.32300 7.51638 37249 ft 465 kts 123°
2026-04-26 12:20 49.28815 7.60034 37242 ft 468 kts 123°
2026-04-26 12:21 49.25308 7.68458 37239 ft 469 kts 123°
2026-04-26 12:21 49.21828 7.76791 37221 ft 460 kts 123°
2026-04-26 12:22 49.18388 7.85004 37239 ft 458 kts 124°
2026-04-26 12:22 49.14944 7.93197 37238 ft 458 kts 124°
2026-04-26 12:23 49.11491 8.01390 37243 ft 459 kts 124°
2026-04-26 12:23 49.08028 8.09580 37244 ft 460 kts 124°
2026-04-26 12:24 49.04553 8.17774 37236 ft 461 kts 124°
2026-04-26 12:24 49.01065 8.25979 37249 ft 461 kts 124°
2026-04-26 12:25 48.97093 8.33687 37235 ft 459 kts 140°
2026-04-26 12:25 48.94681 8.36860 37236 ft 458 kts 142°
2026-04-26 12:25 48.89814 8.43137 37233 ft 459 kts 141°
2026-04-26 12:26 48.84962 8.49467 37231 ft 460 kts 141°
2026-04-26 12:26 48.80120 8.55824 37215 ft 460 kts 141°
2026-04-26 12:27 48.75290 8.62163 37216 ft 460 kts 141°
2026-04-26 12:27 48.70455 8.68490 37215 ft 459 kts 141°
2026-04-26 12:28 48.65620 8.74797 37215 ft 458 kts 141°
2026-04-26 12:28 48.60787 8.81085 37224 ft 458 kts 141°
2026-04-26 12:29 48.55955 8.87355 37215 ft 458 kts 141°
2026-04-26 12:30 48.48704 8.96733 37227 ft 457 kts 142°
2026-04-26 12:30 48.43875 9.02960 37218 ft 456 kts 142°
2026-04-26 12:31 48.36638 9.12258 37221 ft 456 kts 142°
2026-04-26 12:31 48.31814 9.18437 37210 ft 455 kts 142°
2026-04-26 12:32 48.26989 9.24602 37209 ft 455 kts 142°
2026-04-26 12:33 48.19743 9.33830 37204 ft 456 kts 142°
2026-04-26 12:33 48.14908 9.39969 37210 ft 455 kts 142°
2026-04-26 12:34 48.10039 9.46134 37204 ft 455 kts 142°
2026-04-26 12:34 48.05203 9.52246 37203 ft 455 kts 142°
2026-04-26 12:35 48.00289 9.58199 37206 ft 454 kts 147°
2026-04-26 12:35 47.95098 9.63533 37210 ft 453 kts 149°
2026-04-26 12:36 47.89860 9.68771 37210 ft 453 kts 149°
2026-04-26 12:36 47.84733 9.73939 37205 ft 453 kts 148°
2026-04-26 12:37 47.79523 9.79223 37207 ft 453 kts 148°
2026-04-26 12:37 47.74323 9.84498 37208 ft 452 kts 148°
2026-04-26 12:38 47.69120 9.89762 37209 ft 452 kts 148°
2026-04-26 12:38 47.63912 9.95016 37210 ft 453 kts 148°
2026-04-26 12:39 47.58698 10.00264 37211 ft 453 kts 148°
2026-04-26 12:39 47.54326 10.04653 37204 ft 453 kts 148°
2026-04-26 12:40 47.48252 10.10737 37202 ft 454 kts 148°
2026-04-26 12:40 47.43864 10.15121 37210 ft 455 kts 148°
2026-04-26 12:41 47.38622 10.20348 37191 ft 455 kts 148°
2026-04-26 12:41 47.33371 10.25570 37208 ft 456 kts 148°
2026-04-26 12:42 47.28105 10.30794 37198 ft 457 kts 148°
2026-04-26 12:42 47.22830 10.36016 37190 ft 456 kts 148°
2026-04-26 12:43 47.17572 10.41210 37200 ft 456 kts 148°
2026-04-26 12:43 47.12303 10.46400 37195 ft 456 kts 149°
2026-04-26 12:44 47.06994 10.51562 37185 ft 457 kts 152°
2026-04-26 12:44 47.01199 10.55098 37211 ft 449 kts 166°
2026-04-26 12:45 46.95195 10.57672 37201 ft 449 kts 166°
2026-04-26 12:45 46.89220 10.60323 37198 ft 449 kts 166°
2026-04-26 12:46 46.83257 10.63017 37181 ft 448 kts 166°
2026-04-26 12:46 46.77309 10.65694 37180 ft 447 kts 166°
2026-04-26 12:47 46.71358 10.68302 37177 ft 446 kts 168°
2026-04-26 12:47 46.65307 10.70347 37203 ft 443 kts 171°
2026-04-26 12:48 46.59263 10.72234 37174 ft 444 kts 171°
2026-04-26 12:48 46.53231 10.74160 37198 ft 445 kts 170°
2026-04-26 12:49 46.47181 10.76123 37184 ft 446 kts 170°
2026-04-26 12:49 46.41126 10.78092 37195 ft 446 kts 170°
2026-04-26 12:50 46.35073 10.80056 37198 ft 446 kts 170°
2026-04-26 12:50 46.29012 10.82016 37208 ft 446 kts 170°
2026-04-26 12:51 46.22955 10.83973 37204 ft 446 kts 169°
2026-04-26 12:51 46.17051 10.86845 37200 ft 449 kts 161°
2026-04-26 12:52 46.11245 10.90222 37180 ft 451 kts 160°
2026-04-26 12:52 46.05425 10.93586 37168 ft 450 kts 161°
2026-04-26 12:53 45.99602 10.96883 37141 ft 449 kts 161°
2026-04-26 12:53 45.93775 11.00148 37117 ft 449 kts 161°
2026-04-26 12:54 45.87956 11.03395 37119 ft 448 kts 161°
2026-04-26 12:54 45.82143 11.06634 37096 ft 448 kts 161°
2026-04-26 12:55 45.76342 11.09859 37081 ft 447 kts 161°
2026-04-26 12:55 45.70565 11.13066 37113 ft 445 kts 161°
2026-04-26 12:56 45.64783 11.16267 37085 ft 446 kts 161°
2026-04-26 12:56 45.59003 11.19461 37103 ft 445 kts 161°
2026-04-26 12:57 45.53212 11.22651 37100 ft 447 kts 161°
2026-04-26 12:57 45.47404 11.25844 37094 ft 448 kts 161°
2026-04-26 12:58 45.38662 11.30639 37086 ft 450 kts 161°
2026-04-26 12:58 45.32772 11.33861 37090 ft 451 kts 161°
2026-04-26 12:59 45.26944 11.37042 37094 ft 452 kts 161°
2026-04-26 12:59 45.21034 11.40260 37090 ft 452 kts 161°
2026-04-26 13:00 45.15155 11.43455 37086 ft 452 kts 161°
2026-04-26 13:00 45.09289 11.46635 37078 ft 451 kts 161°
2026-04-26 13:01 45.03434 11.49802 37085 ft 450 kts 161°
2026-04-26 13:01 44.97588 11.52958 37078 ft 449 kts 161°
2026-04-26 13:02 44.91754 11.56100 37077 ft 448 kts 161°
2026-04-26 13:02 44.88836 11.57670 36970 ft 450 kts 161°
2026-04-26 13:02 44.85909 11.59243 36615 ft 449 kts 161°
2026-04-26 13:03 44.83009 11.60796 36228 ft 443 kts 162°
2026-04-26 13:03 44.80083 11.62023 35868 ft 435 kts 171°
2026-04-26 13:03 44.77112 11.62687 35472 ft 431 kts 174°
2026-04-26 13:03 44.74154 11.63241 35066 ft 428 kts 175°
2026-04-26 13:04 44.71206 11.63784 34666 ft 425 kts 174°
2026-04-26 13:04 44.68285 11.64341 34279 ft 422 kts 174°
2026-04-26 13:04 44.65380 11.64914 33858 ft 420 kts 174°
2026-04-26 13:04 44.62495 11.65498 33415 ft 418 kts 174°
2026-04-26 13:05 44.59626 11.66083 33016 ft 415 kts 174°
2026-04-26 13:05 44.56782 11.66661 32624 ft 412 kts 174°
2026-04-26 13:05 44.53958 11.67234 32235 ft 409 kts 174°
2026-04-26 13:05 44.51139 11.67805 31793 ft 408 kts 174°
2026-04-26 13:06 44.48341 11.68370 31412 ft 405 kts 174°
2026-04-26 13:06 44.45557 11.68931 31029 ft 403 kts 174°
2026-04-26 13:06 44.42788 11.69490 30656 ft 401 kts 174°
2026-04-26 13:06 44.40036 11.70044 30290 ft 399 kts 174°
2026-04-26 13:07 44.37297 11.70595 29880 ft 397 kts 174°
2026-04-26 13:07 44.34574 11.71143 29473 ft 394 kts 174°
2026-04-26 13:07 44.31868 11.71686 29078 ft 391 kts 174°
2026-04-26 13:07 44.29186 11.72225 28709 ft 388 kts 174°
2026-04-26 13:08 44.26493 11.72765 28319 ft 385 kts 174°
2026-04-26 13:08 44.23849 11.73295 27944 ft 383 kts 174°
2026-04-26 13:08 44.21221 11.73821 27575 ft 380 kts 174°
2026-04-26 13:08 44.18611 11.74343 27214 ft 378 kts 174°
2026-04-26 13:09 44.16017 11.74861 26844 ft 375 kts 174°
2026-04-26 13:09 44.13438 11.75376 26484 ft 374 kts 173°
2026-04-26 13:09 44.10872 11.75888 26122 ft 372 kts 173°
2026-04-26 13:09 44.08315 11.76397 25757 ft 370 kts 173°
2026-04-26 13:10 44.05771 11.76904 25405 ft 369 kts 173°
2026-04-26 13:10 44.03230 11.77409 25049 ft 368 kts 173°
2026-04-26 13:10 44.00699 11.77912 24693 ft 367 kts 173°
2026-04-26 13:10 43.98166 11.78415 24309 ft 367 kts 173°
2026-04-26 13:11 43.95647 11.78916 23963 ft 366 kts 173°
2026-04-26 13:11 43.93116 11.79417 23561 ft 367 kts 173°
2026-04-26 13:11 43.90591 11.79917 23171 ft 366 kts 173°
2026-04-26 13:11 43.88079 11.80414 22767 ft 365 kts 172°
2026-04-26 13:12 43.86412 11.80743 22467 ft 365 kts 172°
2026-04-26 13:12 43.83904 11.81238 22092 ft 363 kts 172°
2026-04-26 13:12 43.81408 11.81730 21731 ft 362 kts 172°
2026-04-26 13:12 43.78920 11.82220 21374 ft 359 kts 172°
2026-04-26 13:13 43.76451 11.82706 21033 ft 357 kts 172°
2026-04-26 13:13 43.73998 11.83188 20700 ft 356 kts 172°
2026-04-26 13:13 43.71549 11.83670 20344 ft 355 kts 172°
2026-04-26 13:13 43.69108 11.84149 19995 ft 354 kts 172°
2026-04-26 13:14 43.66674 11.84627 19660 ft 353 kts 172°
2026-04-26 13:14 43.64248 11.85103 19313 ft 352 kts 172°
2026-04-26 13:14 43.61829 11.85576 18975 ft 351 kts 172°
2026-04-26 13:14 43.59411 11.86049 18609 ft 351 kts 172°
2026-04-26 13:15 43.56995 11.86522 18259 ft 350 kts 172°
2026-04-26 13:15 43.54552 11.87000 17869 ft 349 kts 172°
2026-04-26 13:15 43.52151 11.87469 17510 ft 348 kts 172°
2026-04-26 13:15 43.49762 11.87935 17152 ft 346 kts 172°
2026-04-26 13:16 43.47386 11.88398 16821 ft 344 kts 171°
2026-04-26 13:16 43.45025 11.88858 16480 ft 342 kts 171°
2026-04-26 13:16 43.42678 11.89315 16147 ft 340 kts 171°
2026-04-26 13:16 43.40343 11.89769 15808 ft 338 kts 171°
2026-04-26 13:17 43.35708 11.90671 15150 ft 334 kts 171°
2026-04-26 13:17 43.33410 11.91117 14819 ft 332 kts 171°
2026-04-26 13:18 43.28895 11.92250 14168 ft 327 kts 155°
2026-04-26 13:18 43.26970 11.93829 13912 ft 320 kts 137°
2026-04-26 13:18 43.23954 11.98239 13249 ft 315 kts 130°
2026-04-26 13:19 43.22505 12.00476 12920 ft 313 kts 131°
2026-04-26 13:19 43.21051 12.02689 12600 ft 311 kts 131°
2026-04-26 13:19 43.19593 12.04880 12267 ft 310 kts 131°
2026-04-26 13:19 43.18138 12.07048 11928 ft 309 kts 132°
2026-04-26 13:20 43.16688 12.09202 11615 ft 307 kts 131°
2026-04-26 13:20 43.15522 12.11608 11276 ft 303 kts 110°
2026-04-26 13:20 43.15001 12.14375 10999 ft 299 kts 104°
2026-04-26 13:20 43.14087 12.16909 10667 ft 300 kts 130°
2026-04-26 13:21 43.12468 12.18680 10369 ft 299 kts 154°
2026-04-26 13:21 43.11205 12.19372 10310 ft 293 kts 160°
2026-04-26 13:21 43.08655 12.20579 10036 ft 288 kts 160°
2026-04-26 13:21 43.06761 12.21481 9733 ft 287 kts 160°
2026-04-26 13:22 43.04879 12.22386 9440 ft 286 kts 160°
2026-04-26 13:22 43.03004 12.23295 9152 ft 286 kts 160°
2026-04-26 13:22 43.01125 12.24207 8782 ft 287 kts 160°
2026-04-26 13:22 42.99239 12.25123 8435 ft 288 kts 160°
2026-04-26 13:23 42.97345 12.26041 8097 ft 290 kts 160°
2026-04-26 13:23 42.95436 12.26965 7714 ft 292 kts 161°
2026-04-26 13:23 42.93581 12.28068 7334 ft 290 kts 145°
2026-04-26 13:23 42.92166 12.29979 6993 ft 283 kts 129°
2026-04-26 13:24 42.90931 12.32049 6632 ft 280 kts 129°
2026-04-26 13:24 42.89711 12.34092 6231 ft 277 kts 129°
2026-04-26 13:24 42.88733 12.36344 5771 ft 277 kts 106°
2026-04-26 13:24 42.88598 12.38916 5354 ft 274 kts 79°
2026-04-26 13:25 42.89335 12.41305 4785 ft 276 kts 53°
2026-04-26 13:25 42.90699 12.43144 4283 ft 277 kts 38°
2026-04-26 13:25 42.92223 12.44802 3612 ft 283 kts 32°
2026-04-26 13:25 42.93999 12.45900 3262 ft 278 kts 16°
2026-04-26 13:26 42.95858 12.46583 2841 ft 275 kts 11°
2026-04-26 13:26 42.97650 12.47162 2811 ft 254 kts 12°
2026-04-26 13:26 42.99303 12.47732 2798 ft 237 kts 13°
2026-04-26 13:26 43.00896 12.48314 2462 ft 239 kts 12°
2026-04-26 13:27 43.02496 12.48869 2161 ft 237 kts 13°
2026-04-26 13:27 43.04078 12.49396 1773 ft 226 kts 12°
2026-04-26 13:27 43.05546 12.49911 1449 ft 210 kts 13°
2026-04-26 13:27 43.06925 12.50391 1119 ft 198 kts 12°
2026-04-26 13:28 43.08216 12.50848 916 ft 180 kts 12°
2026-04-26 13:28 43.09478 12.51287 1419 ft 189 kts 11°
2026-04-26 13:28 43.10711 12.51385 2301 ft 178 kts 343°
2026-04-26 13:28 43.11795 12.50466 2209 ft 184 kts 302°
2026-04-26 13:29 43.11948 12.48855 2644 ft 175 kts 246°
2026-04-26 13:29 43.11449 12.47981 3200 ft 183 kts 216°
2026-04-26 13:29 43.09903 12.46908 3840 ft 185 kts 218°
2026-04-26 13:29 43.08951 12.45671 4014 ft 198 kts 231°
2026-04-26 13:30 43.08178 12.44070 4020 ft 201 kts 247°
2026-04-26 13:30 43.07699 12.42287 3994 ft 198 kts 252°
2026-04-26 13:30 43.07266 12.40504 3983 ft 196 kts 256°
2026-04-26 13:30 43.06821 12.38705 4026 ft 210 kts 242°
2026-04-26 13:31 43.05729 12.37153 4026 ft 249 kts 210°
2026-04-26 13:31 43.04036 12.36282 3959 ft 265 kts 197°
2026-04-26 13:31 43.02278 12.35634 3982 ft 258 kts 196°
2026-04-26 13:31 43.00567 12.35038 3970 ft 250 kts 195°
2026-04-26 13:32 42.98920 12.34474 4003 ft 238 kts 196°
2026-04-26 13:32 42.97336 12.33933 3989 ft 229 kts 195°
2026-04-26 13:32 42.95851 12.33428 3990 ft 213 kts 196°
2026-04-26 13:32 42.94414 12.32982 3986 ft 216 kts 187°
2026-04-26 13:33 42.92907 12.33382 3827 ft 230 kts 154°
2026-04-26 13:33 42.91738 12.34867 3514 ft 231 kts 119°
2026-04-26 13:33 42.91296 12.36888 3458 ft 216 kts 99°
2026-04-26 13:33 42.91109 12.38852 3404 ft 202 kts 97°
2026-04-26 13:34 42.90942 12.40708 3393 ft 192 kts 95°
2026-04-26 13:34 42.91131 12.42471 3430 ft 188 kts 66°
2026-04-26 13:34 42.91702 12.44083 3375 ft 184 kts 53°
2026-04-26 13:34 42.92329 12.44837 3378 ft 178 kts 19°
2026-04-26 13:35 42.93914 12.45559 3403 ft 183 kts 19°
2026-04-26 13:35 42.95119 12.46168 3443 ft 189 kts 17°
2026-04-26 13:35 42.96354 12.46702 3376 ft 177 kts 12°
2026-04-26 13:35 42.97551 12.47128 3221 ft 178 kts 12°
2026-04-26 13:36 42.98759 12.47545 2951 ft 178 kts 11°
2026-04-26 13:36 42.99920 12.47970 2686 ft 172 kts 15°
2026-04-26 13:36 43.01047 12.48320 2464 ft 160 kts
2026-04-26 13:36 43.02097 12.48701 2257 ft 156 kts 14°
2026-04-26 13:37 43.03148 12.49081 1979 ft 153 kts 11°
2026-04-26 13:37 43.04152 12.49407 1761 ft 144 kts 12°
2026-04-26 13:37 43.05132 12.49768 1551 ft 148 kts 13°
2026-04-26 13:37 43.06150 12.50116 1332 ft 152 kts 11°
2026-04-26 13:38 43.07211 12.50488 1085 ft 158 kts 13°
2026-04-26 13:38 43.08268 12.50858 833 ft 155 kts 10°
2026-04-26 13:38 43.09280 12.51218 672 ft 142 kts 12°
2026-04-26 13:38 43.10079 12.51492 669 ft 88 kts 14°
2026-04-26 13:39 43.10513 12.51642 670 ft 55 kts 14°
2026-04-26 13:39 43.10756 12.51672 668 ft 23 kts 306°
2026-04-26 13:39 43.10750 12.51506 668 ft 17 kts 215°
2026-04-26 13:39 43.10652 12.51462 668 ft 14 kts 194°
2026-04-26 13:40 43.10563 12.51430 668 ft 13 kts 194°
2026-04-26 13:40 43.10468 12.51397 668 ft 17 kts 194°
2026-04-26 13:40 43.10337 12.51351 668 ft 20 kts 194°
2026-04-26 13:40 43.10194 12.51301 668 ft 22 kts 194°
2026-04-26 13:41 43.10041 12.51247 668 ft 23 kts 194°
2026-04-26 13:41 43.09879 12.51192 668 ft 25 kts 194°
2026-04-26 13:41 43.09767 12.51135 667 ft 13 kts 228°
2026-04-26 13:41 43.09719 12.51004 668 ft 18 kts 246°
2026-04-26 13:42 43.09668 12.50848 668 ft 18 kts 245°
2026-04-26 13:42 43.09618 12.50697 666 ft 17 kts 246°
2026-04-26 13:42 43.09570 12.50551 668 ft 17 kts 246°
2026-04-26 13:42 43.09507 12.50464 668 ft 12 kts 169°
2026-04-26 13:43 43.09465 12.50430 668 ft 4 kts 242°
2026-04-26 13:43 43.09462 12.50419 668 ft 0 kts 250°
2026-04-26 13:43 43.09461 12.50408 668 ft 3 kts 267°
2026-04-26 13:43 43.09465 12.50391 668 ft 0 kts 289°